Welcome to the New NWS' Forecast!
Most changes are behind the scenes, but click here for differences you might notice.

Regional Weather Roundup (RWR)

Issued by Gray - Portland, ME (GYX)

                            
131 
ASUS41 KGYX 212210
RWRGYX
WEATHER ROUNDUP FOR MAINE AND NEW HAMPSHIRE
NATIONAL WEATHER SERVICE GRAY ME
500 PM EST SUN JAN 21 2018

MEZ002-005-006-010-012-015-018-020-021-024-026-027-029-212300-
MAINE
  
CITY           SKY/WX    TMP DP  RH WIND       PRES   REMARKS
PORTLAND       MOCLDY    40  29  64 CALM      30.14R                  
SANFORD        FAIR      41  26  55 NW6       30.14R                  
BAR HARBOR     FAIR      36  20  52 NW5       30.13R                  
WISCASSET      MOCLDY    36  28  73 CALM      30.15R                  
ROCKLAND       FAIR      40  24  53 NW6       30.14R                  
FRYEBURG       FAIR      40  25  55 CALM      30.12R                  
LEWISTONAUBURN FAIR      40  25  55 NW5       30.13R                  
AUGUSTA        CLOUDY    39  24  55 NW5       30.14R                  
WATERVILLE     CLOUDY    37  24  59 NW6       30.10R                  
BANGOR         MOCLDY    30  18  60 CALM      30.13R                  
GREENVILLE       N/A     25  12  58 VRB6      30.04S                  
MILLINOCKET    FAIR      27  11  51 VRB6G18   30.12R                  
HOULTON        FAIR      24   4  42 W13       30.07R WCI  12          
PRESQUE ISLE   FAIR      20   6  55 N7        30.08R                  
FRENCHVILLE    MOCLDY    11   0  61 NW13      30.05R WCI  -4          
CARIBOU        FAIR      17   3  54 N7        30.06R                  
$$

NHZ002-005-008-009-011-012-014-212300-
NEW HAMPSHIRE
  
CITY           SKY/WX    TMP DP  RH WIND       PRES   REMARKS
PORTSMOUTH     MOCLDY    43  27  54 CALM      30.13R                  
ROCHESTER      FAIR      41  27  57 NW3       30.13R                  
NASHUA         FAIR      37  30  75 CALM      30.13R                  
MANCHESTER     MOCLDY    39  29  67 CALM      30.12R                  
CONCORD        FAIR      39  29  67 CALM      30.13R                  
LACONIA        FAIR      36  28  73 CALM      30.14R                  
PLYMOUTH       CLOUDY    37  29  72 CALM      30.12S                  
BERLIN         CLOUDY    34  26  72 N5        30.09S                  
WHITEFIELD     FAIR      32  27  81 CALM      30.10S                  
JAFFREY        FAIR      35  30  82 CALM      30.11R                  
KEENE          FAIR      35  28  75 CALM      30.13R                  
LEBANON        CLOUDY    36  30  79 CALM      30.12R                  
MT WASHINGTON  FOG       14  14 100 NW45G52     N/A  VSB 1/16WCI -10  
$$

VTZ005-007-008-212300-
VERMONT
  
CITY           SKY/WX    TMP DP  RH WIND       PRES   REMARKS
ST JOHNSBURY     N/A     37  28  70 MISG      30.10R                  
MONTPELIER     CLOUDY    35  29  78 CALM      30.14R                  
BURLINGTON     CLOUDY    35  26  69 NW8       30.14R                  
$$

MAZ007-012-024-CTZ003-RIZ002-NYZ038-NYZ072-212300-
SOUTHERN NEW ENGLAND AND NY
  
CITY           SKY/WX    TMP DP  RH WIND       PRES   REMARKS
BOSTON         MOCLDY    46  29  51 W5        30.14R                  
WORCESTER      FAIR      40  27  59 W3        30.12R                  
NANTUCKET      FAIR      34  31  88 CALM      30.16R                  
PROVIDENCE     FAIR      42  31  64 S6        30.15R                  
HARTFORD       FAIR      44  29  55 CALM      30.13S                  
ALBANY         CLOUDY    39  28  64 CALM      30.16R                  
NEW YORK CITY  MOCLDY    49  29  46 CALM      30.14R                  
$$

ANZ081-ANZ082-ANZ150-NHZ014-MEZ023>029-212300-
COASTAL MARINE OBSERVATIONS
  
STATION/POSITION TIME  TEMP    WIND        PRES    WAVE
                       AIR SEA DIR/SP/G            HT/PER
                 (UTC) (F)     (DEG/KT/KT) (MB)    (FT/S)
MOUNT DESERT ROC 2200   41     290/ 21/ 25 1019.8R
MATINICUS ROCK   2100   39     270/ 10/ 11 1018.9R
ISLE OF SHOALS   2100   44     310/  3/  4 1019.9R
JEFFREYS LEDGE   2136      43                N/A     2/ 8
GEORGES BANK BUO 2050   50 59              1017.6   10/10
$$

.............KEY..............
   WCI - WIND CHILL
   TC  - TEMPERATURE IN CELSIUS
   VSB - VISIBILITY IN MILES
   HX  - HEAT INDEX
   FAIR- INDICATES FEW OR NO CLOUDS BELOW 12,000 FT, WITH NO 
         SIGNIFICANT WEATHER AND/OR OBSTRUCTIONS TO VISIBILITY.